Location: ??????????
(54.8537°N, 38.8755°E)
Time: 15:31:11
(UTC+00:00)

Tiros 1 despin weight - All Passes

Search period start: 13 September 2024 00:00
Search period end: 23 September 2024 00:00
Orbit: 573 x 617 km, 48.2° (Epoch: 13 September)

Date Brightness Start Highest point End Pass type
(mag) Time Alt. Az. Time Alt. Az. Time Alt. Az.
13 Sep - 01:57:28 10° SSW 02:00:52 21° SSE 02:04:16 10° ESE visible
13 Sep - 03:37:02 10° WSW 03:41:10 35° S 03:45:18 10° ESE daylight
13 Sep - 05:17:36 10° WSW 05:21:38 31° SSW 05:25:38 10° SE daylight
13 Sep - 06:59:08 10° WSW 07:01:47 15° SSW 07:04:23 10° S daylight
14 Sep - 00:28:54 10° SSE 00:29:42 10° SE 00:30:30 10° SE visible
14 Sep - 02:05:53 10° SW 02:09:39 26° SSE 02:13:27 10° ESE visible
14 Sep - 03:45:53 10° WSW 03:50:03 36° S 03:54:13 10° ESE daylight
14 Sep - 05:26:40 10° WSW 05:30:27 26° SSW 05:34:14 10° SE daylight
14 Sep - 07:09:28 10° SW 07:10:26 11° SW 07:11:23 10° SSW daylight
15 Sep - 00:35:44 10° S 00:38:19 15° SSE 00:40:55 10° ESE visible
15 Sep - 02:14:27 10° SW 02:18:28 31° SSE 02:22:28 10° ESE visible
15 Sep - 03:54:46 10° WSW 03:58:54 35° S 04:03:02 10° ESE daylight
15 Sep - 05:35:47 10° WSW 05:39:13 21° SSW 05:42:37 10° SSE daylight
16 Sep - 00:43:41 10° SSW 00:46:59 20° SSE 00:50:19 10° ESE visible
16 Sep - 02:23:09 10° WSW 02:27:16 34° S 02:31:24 10° ESE visible
16 Sep - 04:03:41 10° WSW 04:07:43 32° SSW 04:11:44 10° SE daylight
16 Sep - 05:45:06 10° WSW 05:47:53 16° SSW 05:50:39 10° S daylight
17 Sep - 00:51:57 10° SW 00:55:40 25° SSE 00:59:25 10° ESE visible
17 Sep - 02:31:54 10° WSW 02:36:03 36° S 02:40:14 10° ESE daylight
17 Sep - 04:12:37 10° WSW 04:16:28 27° SSW 04:20:17 10° SE daylight
17 Sep - 05:55:02 10° SW 05:56:28 11° SW 05:57:53 10° SSW daylight
17 Sep - 23:21:53 10° S 23:24:17 14° SE 23:26:41 10° ESE visible
18 Sep - 01:00:26 10° SW 01:04:23 30° SSE 01:08:22 10° ESE visible
18 Sep - 02:40:41 10° WSW 02:44:49 35° S 02:48:58 10° ESE daylight
18 Sep - 04:21:38 10° WSW 04:25:08 22° SSW 04:28:38 10° SSE daylight
18 Sep - 23:29:39 10° SSW 23:32:51 19° SSE 23:36:04 10° ESE visible
19 Sep - 01:09:00 10° SW 01:13:06 34° S 01:17:12 10° ESE visible
19 Sep - 02:49:29 10° WSW 02:53:32 32° SSW 02:57:36 10° SE daylight
19 Sep - 04:30:49 10° WSW 04:33:44 17° SSW 04:36:39 10° S daylight
19 Sep - 23:37:48 10° SSW 23:41:26 24° SSE 23:45:06 10° ESE visible
20 Sep - 01:17:39 10° WSW 01:21:48 36° S 01:25:58 10° ESE visible
20 Sep - 02:58:20 10° WSW 03:02:12 28° SSW 03:06:04 10° SE daylight
20 Sep - 04:40:28 10° WSW 04:42:14 12° SW 04:44:00 10° SSW daylight
20 Sep - 22:07:49 10° S 22:09:59 13° SE 22:12:09 10° ESE visible
20 Sep - 23:46:09 10° SW 23:50:03 29° SSE 23:53:59 10° ESE visible
21 Sep - 01:26:20 10° WSW 01:30:28 35° S 01:34:37 10° ESE visible
21 Sep - 03:07:14 10° WSW 03:10:48 23° SSW 03:14:21 10° SSE daylight
21 Sep - 22:15:23 10° SSW 22:18:27 18° SSE 22:21:32 10° ESE visible
21 Sep - 23:54:37 10° SW 23:58:40 33° S 00:02:45 10° ESE visible
22 Sep - 01:35:03 10° WSW 01:39:06 33° S 01:43:10 10° SE visible
22 Sep - 03:16:17 10° WSW 03:19:19 18° SSW 03:22:20 10° SSE daylight
22 Sep - 22:23:23 10° SSW 22:26:56 23° SSE 22:30:31 10° ESE visible
